This is the latest recevied weather packets stored in our database for station/object K5NWZ. If no packets are shown the sender has not sent any weather packets the latest 10 day(s).
| Time | Temp. | Humidity | Pressure | Rain* | Wind** | Luminosity | Snow |
|---|---|---|---|---|---|---|---|
| 1787785728 | 25.56° C | 51% | 1032.7 hPa | 0 mm | - | 83 W/m² | - |
| 1787785423 | 25.56° C | 53% | 1032.6 hPa | 0 mm | - | 73 W/m² | - |
| 1787785121 | 25.56° C | 52% | 1032.9 hPa | 0 mm | - | 67 W/m² | - |
| 1787784817 | 25.56° C | 52% | 1032.7 hPa | 0 mm | - | 72 W/m² | - |
| 1787784516 | 25.56° C | 53% | 1032.9 hPa | 0 mm | - | 81 W/m² | - |
| 1787784211 | 26.11° C | 52% | 1032.7 hPa | 0 mm | - | 95 W/m² | - |
| 1787783906 | 26.67° C | 50% | 1032.7 hPa | 0 mm | - | 128 W/m² | - |
| 1787783603 | 26.11° C | 50% | 1032.4 hPa | 0 mm | - | 127 W/m² | - |
| 1787783297 | 26.11° C | 50% | 1032.9 hPa | 0 mm | - | 82 W/m² | - |
| 1787782993 | 26.11° C | 49% | 1033 hPa | 0 mm | - | 45 W/m² | - |
| 1787782691 | 26.67° C | 48% | 1032.9 hPa | 0 mm | - | 29 W/m² | - |
| 1787782388 | 26.67° C | 47% | 1032.9 hPa | 0 mm | - | 21 W/m² | - |
| 1787782088 | 26.67° C | 47% | 1033.1 hPa | 0 mm | - | 17 W/m² | - |
| 1787781783 | 26.67° C | 48% | 1032.9 hPa | 0 mm | - | 23 W/m² | - |
| 1787781480 | 26.67° C | 47% | 1032.9 hPa | 0 mm | - | 34 W/m² | - |
| 1787781175 | 26.67° C | 46% | 1032.3 hPa | 0 mm | - | 36 W/m² | - |
| 1787780874 | 26.67° C | 46% | 1032.3 hPa | 0 mm | - | 39 W/m² | - |
| 1787780573 | 27.22° C | 45% | 1032.3 hPa | 0 mm | - | 50 W/m² | - |
| 1787780269 | 27.22° C | 44% | 1032.4 hPa | 0 mm | - | 62 W/m² | - |
| 1787779965 | 27.22° C | 45% | 1033 hPa | 0 mm | - | 62 W/m² | - |
| 1787779659 | 27.22° C | 44% | 1033.1 hPa | 0 mm | - | 55 W/m² | - |
| 1787779358 | 27.22° C | 43% | 1033.3 hPa | 0 mm | - | 63 W/m² | - |
| 1787779053 | 27.78° C | 43% | 1033.2 hPa | 0 mm | - | 82 W/m² | - |
| 1787778749 | 27.22° C | 43% | 1033.3 hPa | 0 mm | - | 102 W/m² | - |
| 1787778445 | 27.78° C | 43% | 1033.2 hPa | 0 mm | - | 133 W/m² | - |
* Rain latest hour (hover to see other rain measurements)
** Current wind speed in m/s (hover to see current wind gust speed)